Location: Wien
(48.2082°N, 16.3738°E)
Time: 10:00:40
(UTC+02:00)

UNISAT 6 - Pass Details

Date: 04 May 2024
Orbit: 593 x 668 km, 97.7° (Epoch: 20 May)

Event Time Altitude Azimuth Distance (km) Brightness Sun altitude
Rises 03:22:58 0° 121° (ESE) 2,867 ? -17.4°
Reaches altitude 10° 03:25:49 10° 100° (E) 1,955 ? -17.1°
Maximum altitude 03:28:28 17° 61° (ENE) 1,567 ? -16.8°
Drops below altitude 10° 03:31:07 10° 22° (NNE) 1,946 ? -16.5°
Sets 03:33:56 0° 2° (N) 2,847 ? -16.2°
